User: anonymous   Login
Location: Caltech
(34.1382°N, 118.1253°W)
Time: 17:14:20
(UTC-07:00)
Language:

TMSAT-1 - Orbit

View from above orbital plane
View from above orbital plane
View from above satellite
View from above satellite

Ground track
Ground track

The orbit data is extracted from the following two-line orbital elements,

1 25396U 98043C   16269.41193605  .00000042  00000-0  36832-4 0  9994
2 25396  98.5485 213.9072 0003313  37.6863 322.4548 14.24408505946474
Epoch (UTC): 25 September 2016 09:53:11
Eccentricity: 0.0003313
inclination: 98.5485°
perigee height: 808 km
apogee height: 813 km
right ascension of ascending node: 213.9072°
argument of perigee: 37.6863°
revolutions per day: 14.24408505
mean anomaly at epoch: 322.4548°
orbit number at epoch: 94647

The dashed part of the orbit path shows where the satellite is in the earth's shadow,  

DLR